Time,TemperatureF,DewpointF,PressureIn,WindDirection,WindDirectionDegrees,WindSpeedMPH,WindSpeedGustMPH,Humidity,HourlyPrecipIn,Conditions,Clouds,dailyrainin,SoftwareType,DateUTC
2013-02-07 00:00:00,69.6,64.5,30.07,East,98,2.0,-999.0,84,0.00,,,0.00,Wunderground v.1.15,2013-02-07 05:00:00,
2013-02-07 00:04:00,69.8,64.7,30.07,East,98,2.0,-999.0,84,0.00,,,0.00,Wunderground v.1.15,2013-02-07 05:04:00,
2013-02-07 00:09:00,70.0,64.6,30.07,East,96,1.0,-999.0,83,0.00,,,0.00,Wunderground v.1.15,2013-02-07 05:09:00,
2013-02-07 00:14:00,70.1,64.7,30.07,East,98,1.0,-999.0,83,0.00,,,0.00,Wunderground v.1.15,2013-02-07 05:14:00,
2013-02-07 00:19:00,70.2,64.4,30.07,East,95,1.0,-999.0,82,0.00,,,0.00,Wunderground v.1.15,2013-02-07 05:19:00,
2013-02-07 00:24:00,70.2,64.4,30.07,East,95,1.0,-999.0,82,0.00,,,0.00,Wunderground v.1.15,2013-02-07 05:24:00,
2013-02-07 00:30:00,70.2,64.4,30.07,East,95,0.0,-999.0,82,0.00,,,0.00,Wunderground v.1.15,2013-02-07 05:30:00,
2013-02-07 00:35:00,70.1,64.7,30.07,East,95,1.0,-999.0,83,0.00,,,0.00,Wunderground v.1.15,2013-02-07 05:35:00,
2013-02-07 00:40:00,69.9,64.5,30.06,East,95,1.0,-999.0,83,0.00,,,0.00,Wunderground v.1.15,2013-02-07 05:40:00,
2013-02-07 00:45:00,69.8,64.4,30.06,East,95,1.0,-999.0,83,0.00,,,0.00,Wunderground v.1.15,2013-02-07 05:45:00,
2013-02-07 00:50:00,69.7,64.6,30.06,East,95,0.0,-999.0,84,0.00,,,0.00,Wunderground v.1.15,2013-02-07 05:50:00,
2013-02-07 00:54:00,69.5,64.8,30.06,East,95,0.0,-999.0,85,0.00,,,0.00,Wunderground v.1.15,2013-02-07 05:54:00,
2013-02-07 00:59:00,69.3,64.6,30.06,East,95,0.0,-999.0,85,0.00,,,0.00,Wunderground v.1.15,2013-02-07 05:59:00,
2013-02-07 01:05:00,69.2,64.5,30.06,East,94,0.0,-999.0,85,0.00,,,0.00,Wunderground v.1.15,2013-02-07 06:05:00,
2013-02-07 01:10:00,69.2,64.5,30.06,East,94,0.0,-999.0,85,0.00,,,0.00,Wunderground v.1.15,2013-02-07 06:10:00,
2013-02-07 01:15:00,69.2,64.2,30.06,East,94,1.0,-999.0,84,0.00,,,0.00,Wunderground v.1.15,2013-02-07 06:15:00,
2013-02-07 01:25:00,69.3,64.3,30.06,East,94,1.0,-999.0,84,0.00,,,0.00,Wunderground v.1.15,2013-02-07 06:25:00,
2013-02-07 01:30:00,69.4,64.4,30.06,East,98,1.0,-999.0,84,0.00,,,0.00,Wunderground v.1.15,2013-02-07 06:30:00,
2013-02-07 01:35:00,69.4,64.4,30.06,East,98,1.0,-999.0,84,0.00,,,0.00,Wunderground v.1.15,2013-02-07 06:35:00,
2013-02-07 01:40:00,69.4,64.4,30.06,East,98,0.0,-999.0,84,0.00,,,0.00,Wunderground v.1.15,2013-02-07 06:40:00,
2013-02-07 01:45:00,69.3,64.6,30.06,East,98,0.0,-999.0,85,0.00,,,0.00,Wunderground v.1.15,2013-02-07 06:45:00,
2013-02-07 01:54:00,69.2,64.5,30.06,East,98,0.0,-999.0,85,0.00,,,0.00,Wunderground v.1.15,2013-02-07 06:54:00,
2013-02-07 02:00:00,69.2,64.5,30.05,East,96,1.0,-999.0,85,0.00,,,0.00,Wunderground v.1.15,2013-02-07 07:00:00,
2013-02-07 02:05:00,69.2,64.5,30.06,East,84,2.0,-999.0,85,0.00,,,0.00,Wunderground v.1.15,2013-02-07 07:05:00,
2013-02-07 02:15:00,69.1,64.4,30.06,East,85,0.0,-999.0,85,0.00,,,0.00,Wunderground v.1.15,2013-02-07 07:15:00,
2013-02-07 02:25:00,68.9,64.2,30.05,East,85,0.0,-999.0,85,0.00,,,0.00,Wunderground v.1.15,2013-02-07 07:25:00,
2013-02-07 02:30:00,68.7,64.3,30.05,East,85,0.0,-999.0,86,0.00,,,0.00,Wunderground v.1.15,2013-02-07 07:30:00,
2013-02-07 02:35:00,68.5,64.1,30.05,East,84,0.0,-999.0,86,0.00,,,0.00,Wunderground v.1.15,2013-02-07 07:35:00,
2013-02-07 02:44:00,68.0,64.3,30.04,East,84,0.0,-999.0,88,0.00,,,0.00,Wunderground v.1.15,2013-02-07 07:44:00,
2013-02-07 02:49:00,67.7,64.3,30.04,East,85,0.0,-999.0,89,0.00,,,0.00,Wunderground v.1.15,2013-02-07 07:49:00,
2013-02-07 02:55:00,67.3,64.3,30.04,East,84,0.0,-999.0,90,0.00,,,0.00,Wunderground v.1.15,2013-02-07 07:55:00,
2013-02-07 03:00:00,67.0,64.0,30.04,East,84,0.0,-999.0,90,0.00,,,0.00,Wunderground v.1.15,2013-02-07 08:00:00,
2013-02-07 03:05:00,66.8,64.1,30.04,East,84,0.0,-999.0,91,0.00,,,0.00,Wunderground v.1.15,2013-02-07 08:05:00,
2013-02-07 03:10:00,66.6,63.9,30.04,East,84,0.0,-999.0,91,0.00,,,0.00,Wunderground v.1.15,2013-02-07 08:10:00,
2013-02-07 03:19:00,66.2,63.5,30.03,East,84,0.0,-999.0,91,0.00,,,0.00,Wunderground v.1.15,2013-02-07 08:19:00,
2013-02-07 03:25:00,66.0,63.3,30.03,East,84,0.0,-999.0,91,0.00,,,0.00,Wunderground v.1.15,2013-02-07 08:25:00,
2013-02-07 03:30:00,65.8,63.1,30.03,East,84,0.0,-999.0,91,0.00,,,0.00,Wunderground v.1.15,2013-02-07 08:30:00,
2013-02-07 03:35:00,65.8,63.4,30.03,East,84,0.0,-999.0,92,0.00,,,0.00,Wunderground v.1.15,2013-02-07 08:35:00,
2013-02-07 03:45:00,65.7,63.6,30.03,East,85,0.0,-999.0,93,0.00,,,0.00,Wunderground v.1.15,2013-02-07 08:45:00,
2013-02-07 03:50:00,65.6,63.5,30.03,East,85,0.0,-999.0,93,0.00,,,0.00,Wunderground v.1.15,2013-02-07 08:50:00,
2013-02-07 04:00:00,65.5,63.4,30.03,East,84,0.0,-999.0,93,0.00,,,0.00,Wunderground v.1.15,2013-02-07 09:00:00,
2013-02-07 04:05:00,65.5,63.4,30.03,East,84,0.0,-999.0,93,0.00,,,0.00,Wunderground v.1.15,2013-02-07 09:05:00,
2013-02-07 04:14:00,65.4,63.3,30.02,East,83,1.0,-999.0,93,0.00,,,0.00,Wunderground v.1.15,2013-02-07 09:14:00,
2013-02-07 04:19:00,65.4,63.3,30.02,East,82,2.0,-999.0,93,0.00,,,0.00,Wunderground v.1.15,2013-02-07 09:19:00,
2013-02-07 04:24:00,65.5,63.4,30.03,East,82,1.0,-999.0,93,0.00,,,0.00,Wunderground v.1.15,2013-02-07 09:24:00,
2013-02-07 04:29:00,65.5,63.4,30.03,East,82,0.0,-999.0,93,0.00,,,0.00,Wunderground v.1.15,2013-02-07 09:29:00,
2013-02-07 04:34:00,65.5,63.4,30.03,East,82,0.0,-999.0,93,0.00,,,0.00,Wunderground v.1.15,2013-02-07 09:34:00,
2013-02-07 04:39:00,65.4,63.3,30.03,East,82,0.0,-999.0,93,0.00,,,0.00,Wunderground v.1.15,2013-02-07 09:39:00,
2013-02-07 04:44:00,65.3,63.2,30.03,East,82,0.0,-999.0,93,0.00,,,0.00,Wunderground v.1.15,2013-02-07 09:44:00,
2013-02-07 04:50:00,65.2,63.1,30.02,East,82,0.0,-999.0,93,0.00,,,0.00,Wunderground v.1.15,2013-02-07 09:50:00,
2013-02-07 04:55:00,65.1,63.0,30.03,East,82,0.0,-999.0,93,0.00,,,0.00,Wunderground v.1.15,2013-02-07 09:55:00,
2013-02-07 05:00:00,65.0,62.9,30.02,East,82,0.0,-999.0,93,0.00,,,0.00,Wunderground v.1.15,2013-02-07 10:00:00,
2013-02-07 05:05:00,64.9,62.8,30.03,East,82,0.0,-999.0,93,0.00,,,0.00,Wunderground v.1.15,2013-02-07 10:05:00,
2013-02-07 05:14:00,65.0,63.2,30.03,East,82,1.0,-999.0,94,0.00,,,0.00,Wunderground v.1.15,2013-02-07 10:14:00,
2013-02-07 05:19:00,65.0,62.9,30.03,East,82,0.0,-999.0,93,0.00,,,0.00,Wunderground v.1.15,2013-02-07 10:19:00,
2013-02-07 05:25:00,65.0,62.9,30.03,East,82,0.0,-999.0,93,0.00,,,0.00,Wunderground v.1.15,2013-02-07 10:25:00,
2013-02-07 05:30:00,64.9,62.8,30.03,East,82,0.0,-999.0,93,0.00,,,0.00,Wunderground v.1.15,2013-02-07 10:30:00,
2013-02-07 05:40:00,64.8,63.0,30.03,East,82,1.0,-999.0,94,0.00,,,0.00,Wunderground v.1.15,2013-02-07 10:40:00,
2013-02-07 05:45:00,64.7,62.9,30.03,East,82,1.0,-999.0,94,0.00,,,0.00,Wunderground v.1.15,2013-02-07 10:45:00,
2013-02-07 05:50:00,64.7,62.9,30.03,East,82,1.0,-999.0,94,0.00,,,0.00,Wunderground v.1.15,2013-02-07 10:50:00,
2013-02-07 05:55:00,64.7,62.9,30.04,East,82,0.0,-999.0,94,0.00,,,0.00,Wunderground v.1.15,2013-02-07 10:55:00,
2013-02-07 06:00:00,64.6,62.8,30.04,East,82,0.0,-999.0,94,0.00,,,0.00,Wunderground v.1.15,2013-02-07 11:00:00,
2013-02-07 06:10:00,64.5,62.4,30.04,East,82,0.0,-999.0,93,0.00,,,0.00,Wunderground v.1.15,2013-02-07 11:10:00,
2013-02-07 06:15:00,64.4,62.3,30.05,East,82,0.0,-999.0,93,0.00,,,0.00,Wunderground v.1.15,2013-02-07 11:15:00,
2013-02-07 06:20:00,64.2,62.4,30.05,East,82,0.0,-999.0,94,0.00,,,0.00,Wunderground v.1.15,2013-02-07 11:20:00,
2013-02-07 06:25:00,64.2,62.4,30.05,East,82,0.0,-999.0,94,0.00,,,0.00,Wunderground v.1.15,2013-02-07 11:25:00,
2013-02-07 06:35:00,64.0,62.2,30.05,East,82,0.0,-999.0,94,0.00,,,0.00,Wunderground v.1.15,2013-02-07 11:35:00,
2013-02-07 06:44:00,64.0,62.2,30.05,East,82,1.0,-999.0,94,0.00,,,0.00,Wunderground v.1.15,2013-02-07 11:44:00,
2013-02-07 06:50:00,64.0,62.2,30.05,East,82,2.0,-999.0,94,0.00,,,0.00,Wunderground v.1.15,2013-02-07 11:50:00,
2013-02-07 06:55:00,64.0,62.2,30.05,East,82,1.0,-999.0,94,0.00,,,0.00,Wunderground v.1.15,2013-02-07 11:55:00,
2013-02-07 07:00:00,64.0,62.2,30.05,East,82,1.0,-999.0,94,0.00,,,0.00,Wunderground v.1.15,2013-02-07 12:00:00,
2013-02-07 07:09:00,63.9,62.1,30.05,East,81,0.0,-999.0,94,0.00,,,0.00,Wunderground v.1.15,2013-02-07 12:09:00,
2013-02-07 07:14:00,63.9,62.1,30.05,East,80,1.0,-999.0,94,0.00,,,0.00,Wunderground v.1.15,2013-02-07 12:14:00,
2013-02-07 07:20:00,63.8,62.0,30.05,East,81,1.0,-999.0,94,0.00,,,0.00,Wunderground v.1.15,2013-02-07 12:20:00,
2013-02-07 07:25:00,63.8,62.0,30.06,East,81,1.0,-999.0,94,0.00,,,0.00,Wunderground v.1.15,2013-02-07 12:25:00,
2013-02-07 07:30:00,63.8,62.0,30.06,East,80,1.0,-999.0,94,0.00,,,0.00,Wunderground v.1.15,2013-02-07 12:30:00,
2013-02-07 07:39:00,64.1,62.6,30.07,East,79,1.0,-999.0,95,0.00,,,0.00,Wunderground v.1.15,2013-02-07 12:39:00,
2013-02-07 07:45:00,64.3,62.8,30.07,East,80,0.0,-999.0,95,0.00,,,0.00,Wunderground v.1.15,2013-02-07 12:45:00,
2013-02-07 07:50:00,64.5,62.7,30.07,East,80,0.0,-999.0,94,0.00,,,0.00,Wunderground v.1.15,2013-02-07 12:50:00,
2013-02-07 07:55:00,64.7,62.6,30.07,ENE,78,1.0,-999.0,93,0.00,,,0.00,Wunderground v.1.15,2013-02-07 12:55:00,
2013-02-07 08:00:00,64.8,62.7,30.07,ENE,78,2.0,-999.0,93,0.00,,,0.00,Wunderground v.1.15,2013-02-07 13:00:00,
2013-02-07 08:10:00,64.9,62.8,30.07,ENE,76,2.0,-999.0,93,0.00,,,0.00,Wunderground v.1.15,2013-02-07 13:10:00,
2013-02-07 08:15:00,65.0,62.9,30.07,ENE,74,2.0,-999.0,93,0.00,,,0.00,Wunderground v.1.15,2013-02-07 13:15:00,
2013-02-07 08:20:00,65.2,63.1,30.07,ENE,71,2.0,-999.0,93,0.00,,,0.00,Wunderground v.1.15,2013-02-07 13:20:00,
2013-02-07 08:30:00,65.6,63.2,30.07,ENE,71,2.0,-999.0,92,0.00,,,0.00,Wunderground v.1.15,2013-02-07 13:30:00,
2013-02-07 08:35:00,65.8,63.1,30.07,ENE,68,2.0,-999.0,91,0.00,,,0.00,Wunderground v.1.15,2013-02-07 13:35:00,
2013-02-07 08:44:00,66.4,63.7,30.06,ENE,74,2.0,-999.0,91,0.00,,,0.00,Wunderground v.1.15,2013-02-07 13:44:00,
2013-02-07 08:50:00,66.8,63.8,30.06,East,94,3.0,-999.0,90,0.00,,,0.00,Wunderground v.1.15,2013-02-07 13:50:00,
2013-02-07 08:55:00,67.2,63.8,30.06,ENE,77,4.0,-999.0,89,0.00,,,0.00,Wunderground v.1.15,2013-02-07 13:55:00,
2013-02-07 09:00:00,67.7,64.3,30.06,East,96,3.0,-999.0,89,0.00,,,0.00,Wunderground v.1.15,2013-02-07 14:00:00,
2013-02-07 09:10:00,69.2,64.8,30.06,ENE,73,4.0,-999.0,86,0.00,,,0.00,Wunderground v.1.15,2013-02-07 14:10:00,
2013-02-07 09:15:00,69.8,64.7,30.06,East,86,4.0,-999.0,84,0.00,,,0.00,Wunderground v.1.15,2013-02-07 14:15:00,
2013-02-07 09:20:00,70.5,65.1,30.07,East,82,3.0,-999.0,83,0.00,,,0.00,Wunderground v.1.15,2013-02-07 14:20:00,
2013-02-07 09:25:00,71.1,65.3,30.07,ENE,78,2.0,-999.0,82,0.00,,,0.00,Wunderground v.1.15,2013-02-07 14:25:00,
2013-02-07 09:30:00,71.7,65.6,30.07,ESE,115,3.0,-999.0,81,0.00,,,0.00,Wunderground v.1.15,2013-02-07 14:30:00,
2013-02-07 09:35:00,72.4,66.2,30.06,East,101,3.0,-999.0,81,0.00,,,0.00,Wunderground v.1.15,2013-02-07 14:35:00,
2013-02-07 09:40:00,72.7,65.8,30.07,SE,131,3.0,-999.0,79,0.00,,,0.00,Wunderground v.1.15,2013-02-07 14:40:00,
2013-02-07 09:49:00,73.3,66.0,30.06,ESE,112,4.0,-999.0,78,0.00,,,0.00,Wunderground v.1.15,2013-02-07 14:49:00,
2013-02-07 09:54:00,73.6,65.9,30.07,East,85,4.0,-999.0,77,0.00,,,0.00,Wunderground v.1.15,2013-02-07 14:54:00,
2013-02-07 09:59:00,74.0,65.6,30.07,East,88,6.0,-999.0,75,0.00,,,0.00,Wunderground v.1.15,2013-02-07 14:59:00,
2013-02-07 10:05:00,74.1,65.7,30.07,East,101,6.0,-999.0,75,0.00,,,0.00,Wunderground v.1.15,2013-02-07 15:05:00,
2013-02-07 10:14:00,73.9,65.9,30.07,ESE,109,5.0,-999.0,76,0.00,,,0.00,Wunderground v.1.15,2013-02-07 15:14:00,
2013-02-07 10:20:00,74.5,65.7,30.06,East,84,5.0,-999.0,74,0.00,,,0.00,Wunderground v.1.15,2013-02-07 15:20:00,
2013-02-07 10:25:00,74.9,65.3,30.06,East,91,5.0,-999.0,72,0.00,,,0.00,Wunderground v.1.15,2013-02-07 15:25:00,
2013-02-07 10:30:00,75.1,65.5,30.06,ESE,114,7.0,-999.0,72,0.00,,,0.00,Wunderground v.1.15,2013-02-07 15:30:00,
2013-02-07 10:35:00,75.4,65.3,30.05,East,85,6.0,-999.0,71,0.00,,,0.00,Wunderground v.1.15,2013-02-07 15:35:00,
2013-02-07 10:40:00,75.9,65.0,30.04,ENE,68,5.0,-999.0,69,0.00,,,0.00,Wunderground v.1.15,2013-02-07 15:40:00,
2013-02-07 10:50:00,76.0,64.2,30.04,East,82,7.0,-999.0,67,0.00,,,0.00,Wunderground v.1.15,2013-02-07 15:50:00,
2013-02-07 10:55:00,76.2,64.9,30.04,ENE,67,6.0,-999.0,68,0.00,,,0.00,Wunderground v.1.15,2013-02-07 15:55:00,
2013-02-07 11:00:00,76.2,64.4,30.04,East,79,6.0,-999.0,67,0.00,,,0.00,Wunderground v.1.15,2013-02-07 16:00:00,
2013-02-07 11:10:00,76.8,64.6,30.04,ENE,72,6.0,-999.0,66,0.00,,,0.00,Wunderground v.1.15,2013-02-07 16:10:00,
2013-02-07 11:20:00,77.5,63.5,30.04,ESE,121,5.0,-999.0,62,0.00,,,0.00,Wunderground v.1.15,2013-02-07 16:20:00,
2013-02-07 11:25:00,77.5,63.0,30.04,ESE,110,5.0,-999.0,61,0.00,,,0.00,Wunderground v.1.15,2013-02-07 16:25:00,
2013-02-07 11:30:00,77.8,63.3,30.04,SE,132,5.0,-999.0,61,0.00,,,0.00,Wunderground v.1.15,2013-02-07 16:30:00,
2013-02-07 11:40:00,78.2,62.2,30.04,SE,144,3.0,-999.0,58,0.00,,,0.00,Wunderground v.1.15,2013-02-07 16:40:00,
2013-02-07 11:45:00,78.2,62.7,30.03,SE,129,3.0,-999.0,59,0.00,,,0.00,Wunderground v.1.15,2013-02-07 16:45:00,
2013-02-07 11:50:00,78.3,62.8,30.03,East,99,4.0,-999.0,59,0.00,,,0.00,Wunderground v.1.15,2013-02-07 16:50:00,
2013-02-07 11:55:00,78.4,62.9,30.03,SE,126,4.0,-999.0,59,0.00,,,0.00,Wunderground v.1.15,2013-02-07 16:55:00,
2013-02-07 12:00:00,78.5,63.5,30.03,SSE,150,4.0,-999.0,60,0.00,,,0.00,Wunderground v.1.15,2013-02-07 17:00:00,
2013-02-07 12:10:00,78.1,63.1,30.03,South,171,4.0,-999.0,60,0.00,,,0.00,Wunderground v.1.15,2013-02-07 17:10:00,
2013-02-07 12:19:00,78.3,63.3,30.02,East,86,4.0,-999.0,60,0.00,,,0.00,Wunderground v.1.15,2013-02-07 17:19:00,
2013-02-07 12:24:00,78.8,63.3,30.01,ESE,119,3.0,-999.0,59,0.00,,,0.00,Wunderground v.1.15,2013-02-07 17:24:00,
2013-02-07 12:29:00,79.0,63.4,30.01,ESE,115,4.0,-999.0,59,0.00,,,0.00,Wunderground v.1.15,2013-02-07 17:29:00,
2013-02-07 12:34:00,79.0,63.0,30.00,ESE,109,5.0,-999.0,58,0.00,,,0.00,Wunderground v.1.15,2013-02-07 17:34:00,
2013-02-07 12:40:00,78.9,63.4,30.01,South,184,5.0,-999.0,59,0.00,,,0.00,Wunderground v.1.15,2013-02-07 17:40:00,
2013-02-07 12:45:00,78.6,63.1,30.00,SE,139,5.0,-999.0,59,0.00,,,0.00,Wunderground v.1.15,2013-02-07 17:45:00,
2013-02-07 12:50:00,78.3,63.3,30.00,South,181,5.0,-999.0,60,0.00,,,0.00,Wunderground v.1.15,2013-02-07 17:50:00,
2013-02-07 12:55:00,78.6,64.0,30.00,SE,138,5.0,-999.0,61,0.00,,,0.00,Wunderground v.1.15,2013-02-07 17:55:00,
2013-02-07 13:00:00,78.7,63.6,30.00,SE,127,6.0,-999.0,60,0.00,,,0.00,Wunderground v.1.15,2013-02-07 18:00:00,
2013-02-07 13:10:00,78.6,64.0,29.99,SSE,153,6.0,-999.0,61,0.00,,,0.00,Wunderground v.1.15,2013-02-07 18:10:00,
2013-02-07 13:15:00,78.8,63.7,29.99,SSE,155,6.0,-999.0,60,0.00,,,0.00,Wunderground v.1.15,2013-02-07 18:15:00,
2013-02-07 13:24:00,78.8,64.7,29.98,SE,130,6.0,-999.0,62,0.00,,,0.00,Wunderground v.1.15,2013-02-07 18:24:00,
2013-02-07 13:29:00,79.1,64.0,29.98,SSE,165,5.0,-999.0,60,0.00,,,0.00,Wunderground v.1.15,2013-02-07 18:29:00,
2013-02-07 13:34:00,79.0,63.9,29.98,SE,132,5.0,-999.0,60,0.00,,,0.00,Wunderground v.1.15,2013-02-07 18:34:00,
2013-02-07 13:39:00,79.1,62.6,29.97,South,171,6.0,-999.0,57,0.00,,,0.00,Wunderground v.1.15,2013-02-07 18:39:00,
2013-02-07 13:45:00,78.7,62.7,29.97,SSW,199,7.0,-999.0,58,0.00,,,0.00,Wunderground v.1.15,2013-02-07 18:45:00,
2013-02-07 13:50:00,78.7,62.7,29.97,SSE,161,7.0,-999.0,58,0.00,,,0.00,Wunderground v.1.15,2013-02-07 18:50:00,
2013-02-07 13:55:00,78.8,63.3,29.97,SSE,153,6.0,-999.0,59,0.00,,,0.00,Wunderground v.1.15,2013-02-07 18:55:00,
2013-02-07 14:00:00,78.9,62.4,29.97,SSE,157,6.0,-999.0,57,0.00,,,0.00,Wunderground v.1.15,2013-02-07 19:00:00,
2013-02-07 14:10:00,79.0,62.5,29.97,SSE,160,6.0,-999.0,57,0.00,,,0.00,Wunderground v.1.15,2013-02-07 19:10:00,
2013-02-07 14:15:00,79.1,62.1,29.97,ESE,114,6.0,-999.0,56,0.00,,,0.00,Wunderground v.1.15,2013-02-07 19:15:00,
2013-02-07 14:24:00,79.2,62.7,29.97,SSW,192,6.0,-999.0,57,0.00,,,0.00,Wunderground v.1.15,2013-02-07 19:24:00,
2013-02-07 14:30:00,79.4,61.8,29.97,SSE,154,6.0,-999.0,55,0.00,,,0.00,Wunderground v.1.15,2013-02-07 19:30:00,
2013-02-07 14:35:00,79.4,62.3,29.97,SSW,195,6.0,-999.0,56,0.00,,,0.00,Wunderground v.1.15,2013-02-07 19:35:00,
2013-02-07 14:40:00,79.1,62.1,29.97,SW,220,6.0,-999.0,56,0.00,,,0.00,Wunderground v.1.15,2013-02-07 19:40:00,
2013-02-07 14:45:00,79.0,62.0,29.96,SSW,208,6.0,-999.0,56,0.00,,,0.00,Wunderground v.1.15,2013-02-07 19:45:00,
2013-02-07 14:50:00,79.1,62.6,29.96,SSE,147,6.0,-999.0,57,0.00,,,0.00,Wunderground v.1.15,2013-02-07 19:50:00,
2013-02-07 14:59:00,78.7,63.2,29.96,SW,231,7.0,-999.0,59,0.00,,,0.00,Wunderground v.1.15,2013-02-07 19:59:00,
2013-02-07 15:05:00,78.8,63.7,29.96,South,177,7.0,-999.0,60,0.00,,,0.00,Wunderground v.1.15,2013-02-07 20:05:00,
2013-02-07 15:14:00,78.9,63.4,29.95,SSW,197,6.0,-999.0,59,0.00,,,0.00,Wunderground v.1.15,2013-02-07 20:14:00,
2013-02-07 15:20:00,78.8,63.7,29.95,SSE,163,6.0,-999.0,60,0.00,,,0.00,Wunderground v.1.15,2013-02-07 20:20:00,
2013-02-07 15:24:00,78.6,63.6,29.95,South,175,7.0,-999.0,60,0.00,,,0.00,Wunderground v.1.15,2013-02-07 20:24:00,
2013-02-07 15:30:00,78.4,63.8,29.95,South,178,7.0,-999.0,61,0.00,,,0.00,Wunderground v.1.15,2013-02-07 20:30:00,
2013-02-07 15:35:00,78.7,64.1,29.95,SE,130,6.0,-999.0,61,0.00,,,0.00,Wunderground v.1.15,2013-02-07 20:35:00,
2013-02-07 15:40:00,78.1,63.6,29.95,SE,128,7.0,-999.0,61,0.00,,,0.00,Wunderground v.1.15,2013-02-07 20:40:00,
2013-02-07 15:49:00,77.9,64.3,29.94,ESE,115,7.0,-999.0,63,0.00,,,0.00,Wunderground v.1.15,2013-02-07 20:49:00,
2013-02-07 15:55:00,77.9,64.3,29.93,SSE,153,6.0,-999.0,63,0.00,,,0.00,Wunderground v.1.15,2013-02-07 20:55:00,
2013-02-07 16:05:00,77.7,64.5,29.94,SSE,158,6.0,-999.0,64,0.00,,,0.00,Wunderground v.1.15,2013-02-07 21:05:00,
2013-02-07 16:14:00,77.5,64.8,29.94,South,186,6.0,-999.0,65,0.00,,,0.00,Wunderground v.1.15,2013-02-07 21:14:00,
2013-02-07 16:20:00,77.5,64.8,29.94,South,183,7.0,-999.0,65,0.00,,,0.00,Wunderground v.1.15,2013-02-07 21:20:00,
2013-02-07 16:25:00,77.3,64.6,29.95,South,180,7.0,-999.0,65,0.00,,,0.00,Wunderground v.1.15,2013-02-07 21:25:00,
2013-02-07 16:30:00,77.1,65.3,29.95,SSE,165,7.0,-999.0,67,0.00,,,0.00,Wunderground v.1.15,2013-02-07 21:30:00,
2013-02-07 16:35:00,76.8,65.0,29.95,SSE,148,7.0,-999.0,67,0.00,,,0.00,Wunderground v.1.15,2013-02-07 21:35:00,
2013-02-07 16:44:00,76.6,65.7,29.94,SSW,210,7.0,-999.0,69,0.00,,,0.00,Wunderground v.1.15,2013-02-07 21:44:00,
2013-02-07 16:49:00,76.6,65.7,29.95,SSE,155,6.0,-999.0,69,0.00,,,0.00,Wunderground v.1.15,2013-02-07 21:49:00,
2013-02-07 16:54:00,76.7,65.8,29.95,SSE,147,6.0,-999.0,69,0.00,,,0.00,Wunderground v.1.15,2013-02-07 21:54:00,
2013-02-07 17:00:00,76.6,65.7,29.95,SE,126,6.0,-999.0,69,0.00,,,0.00,Wunderground v.1.15,2013-02-07 22:00:00,
2013-02-07 17:05:00,76.5,65.6,29.95,SSE,159,6.0,-999.0,69,0.00,,,0.00,Wunderground v.1.15,2013-02-07 22:05:00,
2013-02-07 17:10:00,76.5,65.6,29.95,SE,134,6.0,-999.0,69,0.00,,,0.00,Wunderground v.1.15,2013-02-07 22:10:00,
2013-02-07 17:20:00,76.0,65.5,29.96,SSE,151,7.0,-999.0,70,0.00,,,0.00,Wunderground v.1.15,2013-02-07 22:20:00,
2013-02-07 17:25:00,75.7,65.6,29.96,SSE,167,6.0,-999.0,71,0.00,,,0.00,Wunderground v.1.15,2013-02-07 22:25:00,
2013-02-07 17:30:00,75.5,65.8,29.96,SE,124,6.0,-999.0,72,0.00,,,0.00,Wunderground v.1.15,2013-02-07 22:30:00,
2013-02-07 17:35:00,75.4,65.7,29.96,SSE,155,6.0,-999.0,72,0.00,,,0.00,Wunderground v.1.15,2013-02-07 22:35:00,
2013-02-07 17:40:00,75.2,65.9,29.96,SE,146,6.0,-999.0,73,0.00,,,0.00,Wunderground v.1.15,2013-02-07 22:40:00,
2013-02-07 17:49:00,74.7,65.9,29.95,SE,144,5.0,-999.0,74,0.00,,,0.00,Wunderground v.1.15,2013-02-07 22:49:00,
2013-02-07 17:55:00,74.3,65.9,29.95,ESE,103,5.0,-999.0,75,0.00,,,0.00,Wunderground v.1.15,2013-02-07 22:55:00,
2013-02-07 18:00:00,74.0,66.0,29.95,SE,141,4.0,-999.0,76,0.00,,,0.00,Wunderground v.1.15,2013-02-07 23:00:00,
2013-02-07 18:09:00,73.5,65.8,29.95,SSE,156,4.0,-999.0,77,0.00,,,0.00,Wunderground v.1.15,2013-02-07 23:09:00,
2013-02-07 18:15:00,73.3,66.0,29.96,SE,138,4.0,-999.0,78,0.00,,,0.00,Wunderground v.1.15,2013-02-07 23:15:00,
2013-02-07 18:20:00,73.1,65.8,29.96,SE,126,2.0,-999.0,78,0.00,,,0.00,Wunderground v.1.15,2013-02-07 23:20:00,
2013-02-07 18:25:00,72.9,66.0,29.97,SE,145,2.0,-999.0,79,0.00,,,0.00,Wunderground v.1.15,2013-02-07 23:25:00,
2013-02-07 18:30:00,72.8,65.9,29.97,SE,144,1.0,-999.0,79,0.00,,,0.00,Wunderground v.1.15,2013-02-07 23:30:00,
2013-02-07 18:39:00,72.5,66.0,29.97,SE,144,3.0,-999.0,80,0.00,,,0.00,Wunderground v.1.15,2013-02-07 23:39:00,
2013-02-07 18:45:00,72.3,66.1,29.97,SSE,147,2.0,-999.0,81,0.00,,,0.00,Wunderground v.1.15,2013-02-07 23:45:00,
2013-02-07 18:50:00,72.2,66.0,29.97,SSE,148,1.0,-999.0,81,0.00,,,0.00,Wunderground v.1.15,2013-02-07 23:50:00,
2013-02-07 18:55:00,72.1,66.3,29.98,South,169,1.0,-999.0,82,0.00,,,0.00,Wunderground v.1.15,2013-02-07 23:55:00,
2013-02-07 19:00:00,72.0,66.2,29.98,SE,126,1.0,-999.0,82,0.00,,,0.00,Wunderground v.1.15,2013-02-08 00:00:00,
2013-02-07 19:05:00,71.9,66.1,29.98,SE,128,1.0,-999.0,82,0.00,,,0.00,Wunderground v.1.15,2013-02-08 00:05:00,
2013-02-07 19:15:00,71.6,66.2,29.98,SE,131,1.0,-999.0,83,0.00,,,0.00,Wunderground v.1.15,2013-02-08 00:15:00,
2013-02-07 19:20:00,71.5,66.1,29.97,SE,130,1.0,-999.0,83,0.00,,,0.00,Wunderground v.1.15,2013-02-08 00:20:00,
2013-02-07 19:30:00,71.0,65.9,29.98,SSE,148,1.0,-999.0,84,0.00,,,0.00,Wunderground v.1.15,2013-02-08 00:30:00,
2013-02-07 19:35:00,70.9,66.2,29.98,SSE,148,1.0,-999.0,85,0.00,,,0.00,Wunderground v.1.15,2013-02-08 00:35:00,
2013-02-07 19:40:00,70.8,66.1,29.98,SSE,148,1.0,-999.0,85,0.00,,,0.00,Wunderground v.1.15,2013-02-08 00:40:00,
2013-02-07 19:45:00,70.8,66.1,29.99,SSE,159,1.0,-999.0,85,0.00,,,0.00,Wunderground v.1.15,2013-02-08 00:45:00,
2013-02-07 19:55:00,70.7,66.3,29.99,SE,129,1.0,-999.0,86,0.00,,,0.00,Wunderground v.1.15,2013-02-08 00:55:00,
2013-02-07 20:00:00,70.6,66.2,29.99,SE,130,1.0,-999.0,86,0.00,,,0.00,Wunderground v.1.15,2013-02-08 01:00:00,
2013-02-07 20:09:00,70.4,66.0,29.99,SE,130,0.0,-999.0,86,0.00,,,0.00,Wunderground v.1.15,2013-02-08 01:09:00,
2013-02-07 20:14:00,70.3,65.9,30.00,SE,130,0.0,-999.0,86,0.00,,,0.00,Wunderground v.1.15,2013-02-08 01:14:00,
2013-02-07 20:20:00,70.2,66.1,30.00,SE,130,0.0,-999.0,87,0.00,,,0.00,Wunderground v.1.15,2013-02-08 01:20:00,
2013-02-07 20:25:00,70.0,66.0,30.00,SE,129,0.0,-999.0,87,0.00,,,0.00,Wunderground v.1.15,2013-02-08 01:25:00,
2013-02-07 20:30:00,69.9,65.9,30.00,SE,130,0.0,-999.0,87,0.00,,,0.00,Wunderground v.1.15,2013-02-08 01:30:00,
2013-02-07 20:39:00,69.7,66.0,30.00,SE,129,0.0,-999.0,88,0.00,,,0.00,Wunderground v.1.15,2013-02-08 01:39:00,
2013-02-07 20:44:00,69.6,65.9,30.00,SE,130,0.0,-999.0,88,0.00,,,0.00,Wunderground v.1.15,2013-02-08 01:44:00,
2013-02-07 20:49:00,69.6,65.9,30.01,SE,130,0.0,-999.0,88,0.00,,,0.00,Wunderground v.1.15,2013-02-08 01:49:00,
2013-02-07 20:54:00,69.5,65.8,30.01,SE,129,0.0,-999.0,88,0.00,,,0.00,Wunderground v.1.15,2013-02-08 01:54:00,
2013-02-07 21:00:00,69.5,65.8,30.02,SE,130,0.0,-999.0,88,0.00,,,0.00,Wunderground v.1.15,2013-02-08 02:00:00,
2013-02-07 21:10:00,69.5,66.1,30.01,SE,130,0.0,-999.0,89,0.00,,,0.00,Wunderground v.1.15,2013-02-08 02:10:00,
2013-02-07 21:15:00,69.4,66.0,30.01,SE,130,0.0,-999.0,89,0.00,,,0.00,Wunderground v.1.15,2013-02-08 02:15:00,
2013-02-07 21:20:00,69.4,66.0,30.01,SE,130,0.0,-999.0,89,0.00,,,0.00,Wunderground v.1.15,2013-02-08 02:20:00,
2013-02-07 21:30:00,69.3,65.9,30.01,SE,130,0.0,-999.0,89,0.00,,,0.00,Wunderground v.1.15,2013-02-08 02:30:00,
2013-02-07 21:35:00,69.3,65.9,30.00,SE,132,1.0,-999.0,89,0.00,,,0.00,Wunderground v.1.15,2013-02-08 02:35:00,
2013-02-07 21:45:00,69.4,66.0,30.00,SE,134,1.0,-999.0,89,0.00,,,0.00,Wunderground v.1.15,2013-02-08 02:45:00,
2013-02-07 21:50:00,69.5,66.1,29.99,SE,142,2.0,-999.0,89,0.00,,,0.00,Wunderground v.1.15,2013-02-08 02:50:00,
2013-02-07 21:55:00,69.6,66.2,29.99,SE,142,2.0,-999.0,89,0.00,,,0.00,Wunderground v.1.15,2013-02-08 02:55:00,
2013-02-07 22:04:00,69.8,66.4,29.99,SSE,161,3.0,-999.0,89,0.00,,,0.00,Wunderground v.1.15,2013-02-08 03:04:00,
2013-02-07 22:10:00,70.0,66.3,29.99,SSE,165,3.0,-999.0,88,0.00,,,0.00,Wunderground v.1.15,2013-02-08 03:10:00,
2013-02-07 22:15:00,70.1,66.4,29.99,SSE,167,3.0,-999.0,88,0.00,,,0.00,Wunderground v.1.15,2013-02-08 03:15:00,
2013-02-07 22:20:00,70.1,66.0,29.99,SSE,167,3.0,-999.0,87,0.00,,,0.00,Wunderground v.1.15,2013-02-08 03:20:00,
2013-02-07 22:25:00,70.2,66.1,29.99,SSE,166,3.0,-999.0,87,0.00,,,0.00,Wunderground v.1.15,2013-02-08 03:25:00,
2013-02-07 22:30:00,70.2,66.1,29.99,South,178,2.0,-999.0,87,0.00,,,0.00,Wunderground v.1.15,2013-02-08 03:30:00,
2013-02-07 22:39:00,70.3,66.2,29.97,SE,137,4.0,-999.0,87,0.00,,,0.00,Wunderground v.1.15,2013-02-08 03:39:00,
2013-02-07 22:44:00,70.3,66.2,29.97,SSE,153,4.0,-999.0,87,0.00,,,0.00,Wunderground v.1.15,2013-02-08 03:44:00,
2013-02-07 22:50:00,70.3,66.2,29.97,SSE,155,3.0,-999.0,87,0.00,,,0.00,Wunderground v.1.15,2013-02-08 03:50:00,
2013-02-07 22:55:00,70.4,66.0,29.98,South,180,4.0,-999.0,86,0.00,,,0.00,Wunderground v.1.15,2013-02-08 03:55:00,
2013-02-07 23:00:00,70.5,66.1,29.97,South,169,4.0,-999.0,86,0.00,,,0.00,Wunderground v.1.15,2013-02-08 04:00:00,
2013-02-07 23:10:00,70.7,66.0,29.98,South,188,5.0,-999.0,85,0.00,,,0.00,Wunderground v.1.15,2013-02-08 04:10:00,
2013-02-07 23:20:00,70.8,66.1,29.98,South,171,5.0,-999.0,85,0.00,,,0.00,Wunderground v.1.15,2013-02-08 04:20:00,
2013-02-07 23:25:00,70.7,66.0,29.97,South,182,5.0,-999.0,85,0.00,,,0.00,Wunderground v.1.15,2013-02-08 04:25:00,
2013-02-07 23:30:00,70.6,65.9,29.96,SW,225,5.0,-999.0,85,0.00,,,0.00,Wunderground v.1.15,2013-02-08 04:30:00,
2013-02-07 23:35:00,70.5,65.8,29.96,SSE,163,5.0,-999.0,85,0.00,,,0.00,Wunderground v.1.15,2013-02-08 04:35:00,
2013-02-07 23:45:00,70.4,66.0,29.95,SW,223,4.0,-999.0,86,0.00,,,0.00,Wunderground v.1.15,2013-02-08 04:45:00,
2013-02-07 23:55:00,70.4,65.7,29.95,South,188,5.0,-999.0,85,0.00,,,0.00,Wunderground v.1.15,2013-02-08 04:55:00,